Regional Weather Roundup
Issued by NWS

Current Version | Previous Version | Text Only | Print | Product List | Glossary On
Versions: 1 2 3 4 5 6 7 8 9 10 11 12 13 14 15 16 17 18 19 20 21 22 23 24 25 26 27 28 29 30 31 32 33 34 35 36 37 38 39 40 41 42 43 44 45 46 47 48 49 50
475
ASUS44 KJAN 300803
RWRMS

MISSISSIPPI HOURLY WEATHER ROUNDUP
NATIONAL WEATHER SERVICE JACKSON MS
300 AM CDT SAT JUL 30 2016

NOTE: "FAIR: INDICATES FEW OR NO CLOUDS BELOW 12,000 FEET WITH NO
SIGNIFICANT WEATHER AND/OR OBSTRUCTIONS TO VISIBILITY.

MSZ001>002-007>008-010>013-018>021-025>028-034>036-300900-
NORTHWEST MISSISSIPPI

CITY           SKY/WX    TMP DP  RH WIND       PRES   REMARKS
CLEVELAND      FAIR      73  73 100 S3        29.95F
GREENWOOD      PTCLDY    75  72  90 S3        29.96F
GREENVILLE     CLEAR     75  72  90 SE5       29.95F
OXFORD         FAIR      70  68  94 CALM      29.98F
WINONA         CLOUDY    75  75  99 S3        29.98S
$$

MSZ003>006-009-014>017-022>024-029>033-037>039-300900-
NORTHEAST MISSISSIPPI

CITY           SKY/WX    TMP DP  RH WIND       PRES   REMARKS
ABERDEEN       FAIR      73  57  56 CALM      29.96F HAZE
COLUMBUS AFB   CLEAR     76  76 100 S5        29.95F
GOLDN TRIANGLE MOCLDY    81  72  74 SW5       29.96S
TUPELO         PTCLDY    73  70  90 CALM      29.95F
$$

MSZ040-058-300900-
CENTRAL MISSISSIPPI

CITY           SKY/WX    TMP DP  RH WIND       PRES   REMARKS
JACKSON INTL   CLEAR     76  72  87 W3        30.00R
JACKSON HAWKNS PTCLDY    77  72  84 CALM      30.00R
MADISON        FAIR      73  72  94 CALM      29.99S
MERIDIAN KEY   CLOUDY    77  73  87 CALM      29.99F
MERIDIAN NAS   CLEAR     77  72  84 SW5       29.98F
VICKSBURG VKS  SUNNY     77  73  88 CALM      29.98F
$$

MSZ059>079-300900-
SOUTH MISSISSIPPI

CITY           SKY/WX    TMP DP  RH WIND       PRES   REMARKS
BROOKHAVEN     FAIR     N/A N/A N/A CALM      30.02F
COLUMBIA       FAIR      72  72 100 CALM      30.04R
HATTIESBURG    CLEAR     76  74  93 CALM      30.01S
MCCOMB         CLEAR     75  72  90 CALM      30.01F
NATCHEZ        CLEAR     75  72  88 S5        30.00S
PINE BELT      CLEAR     73  72  94 CALM      30.01F
$$

MSZ080>082-300900-
COASTAL MISSISSIPPI

CITY           SKY/WX    TMP DP  RH WIND       PRES   REMARKS
BILOXI         CLEAR     80  78  92 NW2       29.99F
PASCAGOULA     CLEAR     75  75 100 CALM      29.99F
GULFPORT       CLEAR     78  75  90 CALM      29.99F
$$

LAZ007>009-015>016-023>026-300900-
NORTHEAST LOUISIANA

CITY           SKY/WX    TMP DP  RH WIND       PRES   REMARKS
BASTROP        FAIR      77  75  95 SW5       29.97F
TALLULAH/VBURG CLEAR     78  75  90 CALM      29.98F
VIDALIA        FAIR      73  73  98 W3        30.02S
$$




USA.gov is the U.S. government's official web portal to all federal, state and local government web resources and services.